EW7717 Weather Reports


time (UTC)temp
F
wind
direction
speed
knots
gust
knots
rain 1hr
in
rain 24hr
in
rain mn
in
humidity
%
barometer
mb
20260508004540 65 198 0.0 3.5 0.00 0.00 0.00 31 1014.5
20260508004038 66 198 0.9 6.1 0.00 0.00 0.00 30 1014.5
20260508003536 66 185 0.9 6.1 0.00 0.00 0.00 29 1014.5
20260508003306 66 153 0.9 3.5 0.00 0.00 0.00 29 1014.3
20260508002531 66 194 0.9 2.6 0.00 0.00 0.00 31 1014.5
20260508002030 66 198 0.9 4.3 0.00 0.00 0.00 28 1014.5
20260508001532 66 199 0.9 6.1 0.00 0.00 0.00 29 1014.5
20260508001030 67 206 0.9 6.1 0.00 0.00 0.00 27 1014.3
20260508000530 67 142 0.0 1.7 0.00 0.00 0.00 30 1014.5
20260508000517 67 142 0.0 0.9 0.00 0.00 0.00 31 1014.5
20260507235530 67 142 0.9 2.6 0.00 0.00 0.00 29 1014.5
20260507235032 67 142 0.9 3.5 0.00 0.00 0.00 28 1014.5
20260507234530 67 139 0.9 3.5 0.00 0.00 0.00 27 1014.5
20260507234028 66 177 0.9 2.6 0.00 0.00 0.00 28 1014.5
20260507233756 66 178 0.9 3.5 0.00 0.00 0.00 28 1014.3
20260507233028 66 186 1.7 6.1 0.00 0.00 0.00 27 1014.5
20260507232528 66 178 2.6 6.1 0.00 0.00 0.00 28 1014.5
20260507232028 67 234 2.6 7.8 0.00 0.00 0.00 27 1014.5
20260507231529 67 184 2.6 7.8 0.00 0.00 0.00 26 1014.6
20260507231256 69 109 1.7 7.0 0.00 0.00 0.00 27 1014.6
20260507230530 70 71 0.0 3.5 0.00 0.00 0.00 27 1014.7
20260507230025 69 68 0.9 3.5 0.00 0.00 0.00 29 1014.6
20260507225517 69 89 0.9 3.5 0.00 0.00 0.00 27 1014.6
20260507225011 68 180 0.9 3.5 0.00 0.00 0.00 30 1014.5
20260507224507 67 169 1.7 4.3 0.00 0.00 0.00 29 1014.6
20260507223959 66 166 1.7 5.2 0.00 0.00 0.00 31 1014.6
20260507223453 66 163 0.9 5.2 0.00 0.00 0.00 27 1014.7
20260507222949 66 200 1.7 5.2 0.00 0.00 0.00 28 1014.7
20260507222448 66 199 1.7 5.2 0.00 0.00 0.00 26 1014.8
20260507222210 66 180 1.7 7.0 0.00 0.00 0.00 28 1014.8
20260507221446 67 205 1.7 7.0 0.00 0.00 0.00 26 1014.8
20260507220944 67 215 2.6 6.1 0.00 0.00 0.00 25 1014.8
20260507220709 66 98 3.5 8.7 0.00 0.00 0.00 29 1014.8
20260507215945 65 192 2.6 8.7 0.00 0.00 0.00 27 1014.8
20260507215445 65 190 1.7 6.1 0.00 0.00 0.00 26 1014.9
20260507214946 65 190 1.7 6.1 0.00 0.00 0.00 26 1015.1
20260507214446 66 186 0.9 5.2 0.00 0.00 0.00 25 1015.1
20260507213940 67 171 0.9 5.2 0.00 0.00 0.00 25 1015.1
20260507213704 67 185 0.9 4.3 0.00 0.00 0.00 24 1015.2
20260507212942 67 185 1.7 4.3 0.00 0.00 0.00 26 1015.1
20260507212440 68 198 1.7 5.2 0.00 0.00 0.00 25 1015.1
20260507211941 69 211 0.9 5.2 0.00 0.00 0.00 23 1015.2
20260507211441 69 70 0.0 1.7 0.00 0.00 0.00 25 1015.4
20260507210941 68 59 0.0 0.9 0.00 0.00 0.00 25 1015.4
20260507210439 68 59 0.9 3.5 0.00 0.00 0.00 26 1015.4
20260507205942 69 59 0.9 3.5 0.00 0.00 0.00 27 1015.5
20260507205437 70 128 0.0 1.7 0.00 0.00 0.00 27 1015.7
20260507204938 71 128 0.9 2.6 0.00 0.00 0.00 25 1015.8
20260507204437 72 128 0.9 2.6 0.00 0.00 0.00 24 1015.8
20260507203938 72 92 0.9 2.6 0.00 0.00 0.00 25 1015.7
20260507203434 72 176 0.9 4.3 0.00 0.00 0.00 26 1015.9
20260507202932 72 244 1.7 5.2 0.00 0.00 0.00 25 1016.0
20260507202431 72 119 0.9 5.2 0.00 0.01 0.00 25 1016.1
20260507201932 71 139 0.9 3.5 0.00 0.01 0.00 25 1016.0
20260507201431 71 246 1.7 3.5 0.00 0.01 0.00 27 1016.1
20260507200931 71 42 1.7 6.1 0.00 0.01 0.00 23 1016.3
20260507200431 71 223 1.7 6.1 0.00 0.01 0.00 23 1016.4
20260507195932 71 186 1.7 4.3 0.00 0.01 0.00 23 1016.5
20260507195431 72 157 0.9 5.2 0.00 0.01 0.00 24 1016.4
20260507194925 71 230 1.7 6.1 0.00 0.01 0.00 27 1016.5
20260507194426 71 202 1.7 6.1 0.00 0.01 0.00 26 1016.5
20260507193926 70 200 1.7 6.1 0.00 0.01 0.00 26 1016.6
20260507193427 69 125 1.7 2.6 0.00 0.01 0.00 24 1016.7
20260507193141 69 250 1.7 5.2 0.00 0.01 0.00 27 1016.9
20260507192421 68 190 1.7 5.2 0.00 0.01 0.00 23 1016.9
20260507191923 69 211 1.7 4.3 0.00 0.02 0.00 21 1016.9
20260507191420 69 174 0.9 3.5 0.00 0.02 0.00 23 1016.9
20260507190922 69 180 1.7 7.8 0.00 0.03 0.00 26 1017.0
20260507190420 68 97 1.7 7.8 0.00 0.03 0.00 27 1017.0
20260507185921 69 195 1.7 3.5 0.00 0.04 0.00 25 1017.1
20260507185420 68 113 1.7 6.1 0.00 0.05 0.00 28 1017.2
20260507184921 68 84 1.7 6.1 0.00 0.05 0.00 24 1017.2
20260507184641 67 105 1.7 7.8 0.00 0.06 0.00 31 1017.2
20260507183917 67 126 2.6 7.8 0.00 0.06 0.00 26 1017.2
20260507183420 67 109 1.7 5.2 0.00 0.07 0.00 22 1017.2
20260507182917 67 131 0.9 4.3 0.00 0.08 0.00 27 1017.2
20260507182418 67 138 1.7 4.3 0.00 0.09 0.00 23 1017.2
20260507181912 67 144 1.7 7.0 0.00 0.09 0.00 22 1017.2
20260507181632 67 142 1.7 7.0 0.00 0.10 0.00 22 1017.3
20260507180900 67 115 1.7 6.1 0.00 0.10 0.00 24 1017.5
20260507180624 65 140 1.7 4.3 0.00 0.11 0.00 26 1017.6
20260507175848 65 182 0.9 4.3 0.00 0.11 0.00 22 1017.7
20260507175342 64 139 0.9 3.5 0.00 0.12 0.00 28 1017.8
20260507174836 64 138 1.7 7.0 0.00 0.12 0.00 22 1017.9
20260507174330 64 190 2.6 7.0 0.00 0.12 0.00 24 1017.9
20260507173824 64 200 2.6 7.8 0.00 0.13 0.00 25 1017.9
20260507173318 64 198 1.7 7.8 0.00 0.13 0.00 24 1018.1
20260507172812 63 202 0.9 4.3 0.00 0.13 0.00 26 1018.1
20260507172527 63 192 1.7 4.3 0.00 0.13 0.00 23 1018.2
20260507171759 63 189 1.7 5.2 0.00 0.13 0.00 26 1018.3
20260507171254 62 204 1.7 5.2 0.00 0.13 0.00 24 1018.3
20260507170748 63 196 1.7 5.2 0.00 0.14 0.00 22 1018.5
20260507170241 63 221 1.7 5.2 0.00 0.14 0.00 23 1018.5
20260507165943 62 242 1.7 6.1 0.00 0.14 0.00 25 1018.5
20260507165826 62 244 1.7 3.5 0.00 0.14 0.00 28 1018.5
20260507164724 62 194 1.7 6.1 0.00 0.14 0.00 25 1018.7
20260507164218 62 78 0.9 3.5 0.00 0.14 0.00 26 1018.7
20260507163712 62 132 0.9 2.6 0.00 0.14 0.00 24 1018.8
20260507163432 62 86 0.9 2.6 0.00 0.15 0.00 26 1018.7
20260507162701 62 92 0.9 2.6 0.00 0.15 0.00 24 1018.8
20260507162154 62 79 0.9 3.5 0.00 0.15 0.00 27 1018.8
20260507161647 61 63 0.9 3.5 0.00 0.15 0.00 31 1018.8
20260507161141 61 130 0.9 3.5 0.00 0.16 0.00 32 1018.8
20260507160636 61 123 0.9 2.6 0.00 0.16 0.00 35 1018.8
20260507160129 60 126 0.9 2.6 0.00 0.16 0.00 34 1018.8
20260507155624 60 178 0.9 2.6 0.00 0.16 0.00 29 1018.9
20260507155118 59 196 0.9 1.7 0.00 0.16 0.00 28 1018.9
20260507154612 59 196 0.9 2.6 0.00 0.16 0.00 27 1018.9
20260507154105 58 248 0.9 2.6 0.00 0.17 0.00 32 1018.9
20260507153559 57 249 0.0 2.6 0.00 0.17 0.00 34 1018.9
20260507153055 56 250 0.0 2.6 0.00 0.17 0.00 35 1018.9
20260507152548 56 253 0.9 3.5 0.00 0.17 0.00 34 1019.0
20260507152306 56 252 0.9 3.5 0.00 0.17 0.00 33 1019.0
20260507151536 56 52 0.0 2.6 0.00 0.17 0.00 37 1019.0
20260507151030 55 53 0.0 1.7 0.00 0.17 0.00 45 1019.0
20260507150525 55 36 0.0 1.7 0.00 0.17 0.00 45 1019.0
20260507150018 54 305 0.0 2.6 0.00 0.17 0.00 47 1019.0
20260507145512 53 306 0.0 2.6 0.00 0.17 0.00 46 1018.9
20260507145006 53 181 0.9 2.6 0.00 0.17 0.00 49 1019.1
20260507144500 52 181 0.9 2.6 0.00 0.17 0.00 47 1019.0
20260507143954 51 200 0.9 2.6 0.00 0.17 0.00 49 1019.1
20260507143447 50 205 0.0 2.6 0.00 0.17 0.00 50 1019.0
20260507142942 49 204 0.0 2.6 0.00 0.17 0.00 55 1018.9
20260507142436 48 204 0.0 2.6 0.00 0.17 0.00 56 1018.9
20260507141931 47 208 0.0 1.7 0.00 0.17 0.00 57 1018.9
20260507141431 46 209 0.0 0.9 0.00 0.17 0.00 61 1019.0
20260507140930 45 209 0.0 0.0 0.00 0.17 0.00 62 1019.0
20260507140427 45 208 0.0 0.0 0.00 0.17 0.00 66 1019.1
20260507140152 44 208 0.0 0.0 0.00 0.17 0.00 70 1019.1
20260507135427 44 208 0.0 0.0 0.00 0.17 0.00 75 1019.3
20260507134926 43 208 0.0 0.0 0.00 0.17 0.00 76 1019.3
20260507134425 42 208 0.0 0.0 0.00 0.17 0.00 78 1019.1
20260507133921 41 208 0.0 0.0 0.00 0.17 0.00 79 1019.0
20260507133422 40 208 0.0 0.9 0.00 0.17 0.00 84 1019.0
20260507132922 39 208 0.0 0.9 0.00 0.17 0.00 85 1019.0
20260507132422 37 208 0.0 0.9 0.00 0.17 0.00 86 1019.0
20260507131920 36 208 0.0 1.7 0.00 0.17 0.00 87 1019.0
20260507131418 35 208 0.0 1.7 0.00 0.17 0.00 88 1018.9
20260507131134 35 207 0.0 0.9 0.00 0.17 0.00 89 1018.9
20260507130419 34 206 0.0 0.9 0.00 0.17 0.00 90 1019.0
20260507125913 33 207 0.0 0.9 0.00 0.17 0.00 90 1018.9
20260507125415 33 207 0.0 0.9 0.00 0.17 0.00 90 1019.0
20260507125135 31 207 0.0 0.9 0.00 0.17 0.00 91 1018.9
20260507124414 31 207 0.0 0.9 0.00 0.17 0.00 90 1018.9
20260507124138 30 207 0.0 0.9 0.00 0.17 0.00 90 1018.9
20260507123413 30 207 0.0 1.7 0.00 0.17 0.00 90 1018.9
20260507122912 29 207 0.0 1.7 0.00 0.17 0.00 91 1018.9
20260507122645 29 161 0.0 0.0 0.00 0.17 0.00 91 1018.9
20260507121915 29 161 0.0 0.0 0.00 0.17 0.00 90 1018.9
20260507121630 29 161 0.0 0.0 0.00 0.17 0.00 90 1018.8
20260507120910 29 161 0.0 0.0 0.00 0.17 0.00 90 1018.7
20260507120409 29 161 0.0 0.9 0.00 0.17 0.00 90 1018.5
20260507115910 29 161 0.0 0.9 0.00 0.17 0.00 90 1018.7
20260507115409 29 161 0.0 0.9 0.00 0.17 0.00 90 1018.8
20260507114912 29 161 0.0 0.9 0.00 0.17 0.00 90 1018.8
20260507114413 29 161 0.0 0.9 0.00 0.17 0.00 90 1018.8
20260507113911 29 161 0.0 0.9 0.00 0.17 0.00 91 1018.7
20260507113411 29 161 0.0 0.9 0.00 0.17 0.00 91 1018.7
20260507112905 29 161 0.0 0.9 0.00 0.17 0.00 92 1018.9
20260507112404 29 161 0.0 0.9 0.00 0.17 0.00 92 1018.9
20260507111905 29 161 0.0 0.9 0.00 0.17 0.00 92 1018.9
20260507111403 29 161 0.0 0.0 0.00 0.17 0.00 92 1018.9
20260507111131 29 161 0.0 0.9 0.00 0.17 0.00 92 1018.8
20260507110404 29 161 0.0 0.9 0.00 0.17 0.00 93 1018.8
20260507105904 28 161 0.0 0.9 0.00 0.17 0.00 93 1018.9
20260507105403 28 161 0.0 0.0 0.00 0.17 0.00 93 1018.8
20260507104902 28 161 0.0 0.9 0.00 0.17 0.00 93 1018.9
20260507104400 28 161 0.0 0.9 0.00 0.17 0.00 93 1018.9
20260507103859 28 161 0.0 0.9 0.00 0.17 0.00 93 1019.0
20260507103356 28 161 0.0 0.0 0.00 0.17 0.00 93 1019.0
20260507102854 28 161 0.0 0.9 0.00 0.17 0.00 93 1019.1
20260507102354 28 161 0.0 0.9 0.00 0.17 0.00 93 1019.1
20260507101853 28 161 0.0 0.9 0.00 0.17 0.00 94 1019.3
20260507101352 28 161 0.0 0.9 0.00 0.17 0.00 93 1019.3
20260507100849 28 161 0.0 0.9 0.00 0.17 0.00 93 1019.3
20260507100347 28 161 0.0 0.9 0.00 0.17 0.00 94 1019.3
20260507095847 28 161 0.0 0.9 0.00 0.17 0.00 94 1019.3
20260507095346 27 161 0.0 0.9 0.00 0.17 0.00 94 1019.3
20260507094838 27 161 0.0 1.7 0.00 0.17 0.00 94 1019.3
20260507094332 27 161 0.0 1.7 0.00 0.17 0.00 94 1019.4
20260507093825 27 161 0.0 0.0 0.00 0.17 0.00 94 1019.4
20260507093320 27 161 0.0 0.0 0.00 0.17 0.00 94 1019.4
20260507092813 27 161 0.0 0.9 0.00 0.17 0.00 94 1019.4
20260507092307 27 161 0.0 0.9 0.00 0.17 0.00 94 1019.5
20260507091804 27 161 0.0 0.9 0.00 0.17 0.00 95 1019.6
20260507091305 27 161 0.0 0.9 0.00 0.17 0.00 94 1019.6
20260507090804 27 161 0.0 0.9 0.00 0.17 0.00 94 1019.7
20260507090301 27 161 0.0 0.9 0.00 0.17 0.00 94 1019.6
20260507085800 27 161 0.0 0.9 0.00 0.17 0.00 94 1019.6
20260507085511 27 161 0.0 0.9 0.00 0.17 0.00 95 1019.6
20260507085004 27 161 0.0 0.9 0.00 0.17 0.00 94 1019.6
20260507084234 27 161 0.0 0.9 0.00 0.17 0.00 94 1019.7
20260507083728 27 161 0.0 0.9 0.00 0.17 0.00 94 1019.9
20260507083221 27 161 0.0 0.9 0.00 0.17 0.00 95 1019.9
20260507082715 27 161 0.0 0.0 0.00 0.17 0.00 95 1019.9
20260507082209 28 161 0.0 0.0 0.00 0.17 0.00 95 1020.0
20260507081922 28 161 0.0 0.0 0.00 0.17 0.00 94 1020.0
20260507081158 28 161 0.0 0.0 0.00 0.17 0.00 94 1020.1
20260507080652 28 161 0.0 1.7 0.00 0.17 0.00 94 1020.0
20260507080146 28 161 0.0 1.7 0.00 0.17 0.00 94 1020.1
20260507075639 28 161 0.0 0.0 0.00 0.17 0.00 95 1020.1
20260507075404 28 161 0.0 0.0 0.00 0.17 0.00 95 1020.3
20260507074627 28 161 0.0 0.0 0.00 0.17 0.00 94 1020.3
20260507074121 28 161 0.0 0.0 0.00 0.17 0.00 94 1020.5
20260507073616 28 161 0.0 0.0 0.00 0.17 0.00 95 1020.5
20260507073334 28 161 0.0 0.0 0.00 0.17 0.00 94 1020.6
20260507072820 28 161 0.0 0.0 0.00 0.17 0.00 95 1020.6
20260507072059 29 161 0.0 0.0 0.00 0.17 0.00 95 1020.5
20260507071552 29 161 0.0 0.0 0.00 0.17 0.00 95 1020.5
20260507071047 29 161 0.0 0.0 0.00 0.17 0.00 95 1020.5
20260507070539 29 161 0.0 0.0 0.00 0.17 0.00 95 1020.6
20260507070033 29 161 0.0 0.0 0.00 0.17 0.00 95 1020.7
20260507065529 28 161 0.0 0.0 0.00 0.17 0.00 95 1020.8
20260507065022 28 161 0.0 0.0 0.00 0.17 0.00 95 1020.8
20260507064515 28 161 0.0 0.0 0.00 0.17 0.00 94 1020.9
20260507064010 28 161 0.0 0.0 0.00 0.17 0.00 94 1020.8
20260507063510 28 161 0.0 0.0 0.00 0.17 0.00 94 1020.9
20260507063009 28 161 0.0 0.0 0.00 0.17 0.00 94 1020.8
20260507062508 28 161 0.0 0.0 0.00 0.17 0.00 94 1020.7
20260507062008 28 161 0.0 0.0 0.00 0.17 0.00 94 1020.7
20260507061509 28 161 0.0 0.0 0.00 0.17 0.00 94 1020.6
20260507061010 28 161 0.0 0.0 0.00 0.17 0.00 94 1020.7
20260507060508 28 161 0.0 0.0 0.00 0.17 0.00 94 1020.6
20260507060007 28 161 0.0 0.0 0.00 0.17 0.00 94 1020.7
20260507055506 29 161 0.0 0.0 0.00 0.17 0.17 94 1020.7
20260507055229 29 161 0.0 0.0 0.00 0.17 0.17 94 1020.7
20260507054506 29 161 0.0 0.0 0.00 0.17 0.17 94 1020.7
20260507054005 29 161 0.0 0.0 0.00 0.17 0.17 94 1020.6
20260507053506 29 161 0.0 0.0 0.00 0.17 0.17 94 1020.6
20260507053002 29 161 0.0 0.0 0.00 0.17 0.17 94 1020.5
20260507052501 29 161 0.0 0.0 0.00 0.17 0.17 94 1020.5
20260507052228 29 161 0.0 0.0 0.00 0.17 0.17 94 1020.5
20260507051500 29 161 0.0 0.0 0.00 0.17 0.17 94 1020.3
20260507051003 29 161 0.0 0.0 0.00 0.17 0.17 94 1020.5
20260507050501 29 161 0.0 0.0 0.00 0.17 0.17 94 1020.3
20260507050230 29 161 0.0 0.0 0.00 0.17 0.17 94 1020.2
20260507045502 29 161 0.0 0.0 0.00 0.17 0.17 94 1020.3
20260507045002 29 161 0.0 0.0 0.00 0.17 0.17 94 1020.2
20260507044455 29 161 0.0 0.0 0.00 0.17 0.17 94 1020.5
20260507043949 29 161 0.0 0.0 0.00 0.17 0.17 94 1020.5
20260507043443 30 161 0.0 0.0 0.00 0.17 0.17 94 1020.5
20260507042937 30 161 0.0 0.0 0.00 0.17 0.17 94 1020.3
20260507042431 30 161 0.0 0.0 0.00 0.17 0.17 93 1020.5
20260507041925 30 161 0.0 0.0 0.00 0.17 0.17 93 1020.3
20260507041419 30 161 0.0 0.0 0.00 0.17 0.17 93 1020.5
20260507040913 30 161 0.0 0.0 0.00 0.17 0.17 93 1020.3
20260507040407 30 161 0.0 0.0 0.00 0.17 0.17 93 1020.3
20260507035901 30 161 0.0 0.0 0.00 0.17 0.17 93 1020.2
20260507035355 30 161 0.0 0.0 0.00 0.17 0.17 93 1020.2
20260507035330 30 161 0.0 0.0 0.00 0.17 0.17 93 1020.2
20260507034603 30 161 0.0 0.0 0.00 0.17 0.17 93 1020.3
20260507033837 30 161 0.0 0.9 0.00 0.17 0.17 93 1020.3
20260507033556 31 161 0.0 1.7 0.00 0.17 0.17 92 1020.2
20260507032825 31 161 0.0 1.7 0.00 0.17 0.17 92 1020.2
20260507032320 31 161 0.0 1.7 0.00 0.17 0.17 92 1020.1
20260507031813 31 161 0.0 1.7 0.00 0.17 0.17 92 1020.2
20260507031540 31 161 0.0 0.0 0.00 0.17 0.17 92 1020.1
20260507030801 31 161 0.0 0.0 0.00 0.17 0.17 92 1020.0
20260507030256 31 161 0.0 0.0 0.00 0.17 0.17 91 1020.1
20260507025749 31 161 0.0 0.0 0.00 0.17 0.17 91 1020.0
20260507025244 32 161 0.0 0.0 0.00 0.17 0.17 90 1020.0
20260507024737 32 161 0.0 0.0 0.00 0.17 0.17 90 1019.9
20260507024456 32 161 0.0 0.0 0.00 0.17 0.17 89 1019.9
20260507023951 33 161 0.0 0.0 0.00 0.17 0.17 89 1019.9
20260507023220 33 161 0.0 0.0 0.00 0.17 0.17 89 1019.7
20260507022713 33 161 0.0 0.0 0.00 0.17 0.17 89 1019.7
20260507022207 34 161 0.0 0.0 0.00 0.17 0.17 88 1019.7
20260507021701 34 161 0.0 0.0 0.00 0.17 0.17 88 1019.6
20260507021157 34 161 0.0 0.9 0.00 0.18 0.17 87 1019.6
20260507020921 35 161 0.0 1.7 0.00 0.18 0.17 87 1019.6
20260507020408 35 161 0.0 1.7 0.00 0.18 0.17 87 1019.6
20260507015639 35 161 0.0 0.9 0.00 0.18 0.17 86 1019.6
20260507015131 35 161 0.0 0.9 0.00 0.18 0.17 86 1019.7
20260507014626 35 161 0.0 1.7 0.00 0.18 0.17 86 1019.6
20260507014119 36 161 0.0 1.7 0.00 0.18 0.17 85 1019.6
20260507013614 36 160 0.9 2.6 0.00 0.18 0.17 84 1019.6
20260507013107 36 133 0.0 2.6 0.00 0.18 0.17 84 1019.6
20260507012830 36 134 0.0 2.6 0.00 0.19 0.17 84 1019.6
20260507012055 37 134 0.0 2.6 0.00 0.19 0.17 83 1019.6
20260507011814 37 213 0.9 3.5 0.00 0.19 0.17 82 1019.6
20260507011303 37 213 1.7 6.1 0.00 0.19 0.17 81 1019.6
20260507010757 38 124 1.7 6.1 0.00 0.20 0.17 80 1019.5
20260507010035 38 202 1.7 4.3 0.00 0.20 0.17 78 1019.5
20260507005526 38 153 2.6 5.2 0.00 0.20 0.17 77 1019.5
20260507005020 39 221 2.6 9.6 0.00 0.20 0.17 75 1019.5
20260507004735 39 170 1.7 9.6 0.00 0.21 0.17 75 1019.4